Springfield, CO

1:48 PM MST on February 25, 2018 (GMT -0700)
Springfield

Weather History for KSPD - January, 2014

Change the Weather History Date:

Saturday, January 25, 2014

  Actual Average Record
Temperature  
Mean Temperature 44 °F -  
Max Temperature 60 °F 47 °F 65 °F (2018)
Min Temperature 27 °F 18 °F 6 °F (2009)
Degree Days  
Heating Degree Days 21 32  
Month to date heating degree days 778 827  
Since 1 July heating degree days 2902 2985  
Cooling Degree Days 0 0  
Month to date cooling degree days 0 0  
Year to date cooling degree days 0 0  
Moisture  
Dew Point 20 °F    
Average Humidity 44    
Maximum Humidity 68    
Minimum Humidity 20    
Precipitation  
Precipitation 0.00 in 0.02 in 0.01 in (2016)
Month to date precipitation 0.20 0.27  
Year to date precipitation 0.20 0.27  
Sea Level Pressure  
Sea Level Pressure 30.02 in    
Wind  
Wind Speed 10 mph (SW)    
Max Wind Speed 18 mph    
Max Gust Speed 24 mph    
T = Trace of Precipitation, MM = Missing Value Source: NWS Daily Summary

Daily Weather History Graph

Daily Weather History Graph

Search for Another Location

Airport or City:

Trip Planner

Search our weather history database for the weather conditions in past years. The results will help you decide how hot, cold, wet, or windy it might be!

Date:

Astronomy

Jan. 25, 2014 Rise Set
Actual Time 6:58 AM MST 5:07 PM MST
Civil Twilight 6:30 AM MST 5:35 PM MST
Nautical Twilight 5:59 AM MST 6:06 PM MST
Astronomical Twilight 5:28 AM MST 6:37 PM MST
Moon 1:33 AM MST 12:09 PM MST
Length of Visible Light 11h 04m
Length of Day
10h 08m
Waning Crescent, 33% of the Moon is Illuminated
Jan 25
Waning Crescent
Jan 30
New
Feb 6
First Quarter
Feb 14
Full
Feb 22
Last Quarter

Hourly Weather History & Observations

Time (MST) Temp. Windchill Dew Point Humidity Pressure Visibility Wind Dir Wind Speed Gust Speed Precip Events Conditions
12:56 AM 37.9 °F 29.2 °F 15.1 °F 39% 30.09 in - WNW 15.0 mph - N/A   Unknown
1:56 AM 37.0 °F 28.1 °F 15.1 °F 41% 30.11 in - NW 15.0 mph - N/A   Unknown
2:56 AM 35.1 °F 26.9 °F 15.1 °F 44% 30.12 in - NW 11.5 mph - N/A   Unknown
3:56 AM 32.0 °F 23.6 °F 15.1 °F 50% 30.12 in - WNW 10.4 mph - N/A   Unknown
4:56 AM 30.0 °F 21.1 °F 16.0 °F 56% 30.14 in - WNW 10.4 mph - N/A   Unknown
5:56 AM 27.0 °F 18.0 °F 17.1 °F 66% 30.17 in - WNW 9.2 mph - N/A   Unknown
6:56 AM 28.0 °F 21.7 °F 17.1 °F 63% 30.19 in - WSW 5.8 mph - N/A   Unknown
7:56 AM 35.1 °F 30.1 °F 19.9 °F 54% 30.17 in - NW 5.8 mph - N/A   Unknown
8:56 AM 48.0 °F - 23.0 °F 37% 30.14 in - WSW 5.8 mph - N/A   Unknown
9:56 AM 57.9 °F - 19.0 °F 22% 30.12 in - Variable 3.5 mph - N/A   Unknown
10:56 AM 59.0 °F - 19.9 °F 22% 30.11 in - East 9.2 mph - N/A   Unknown
11:56 AM 59.0 °F - 19.0 °F 21% 30.07 in - East 5.8 mph - N/A   Unknown
12:56 PM 60.1 °F - 19.9 °F 21% 30.01 in - SE 12.7 mph - N/A   Unknown
1:56 PM 60.1 °F - 21.0 °F 22% 29.98 in - SSE 12.7 mph - N/A   Unknown
2:56 PM 57.9 °F - 21.0 °F 24% 29.97 in - South 15.0 mph - N/A   Unknown
3:56 PM 57.0 °F - 21.9 °F 26% 29.96 in - South 15.0 mph - N/A   Unknown
4:56 PM 48.9 °F - 23.0 °F 36% 29.96 in - South 12.7 mph - N/A   Unknown
5:56 PM 43.0 °F 36.8 °F 23.0 °F 45% 29.97 in - South 11.5 mph - N/A   Unknown
6:56 PM 39.9 °F 32.9 °F 25.0 °F 55% 29.96 in - SSW 11.5 mph - N/A   Unknown
7:56 PM 41.0 °F 33.9 °F 25.0 °F 53% 29.91 in - SSW 12.7 mph - N/A   Unknown
8:56 PM 41.0 °F 34.3 °F 24.1 °F 51% 29.84 in - SSW 11.5 mph - N/A   Unknown
9:56 PM 37.0 °F 31.0 °F 24.1 °F 59% 29.81 in - SSW 8.1 mph - N/A   Unknown
10:56 PM 32.0 °F 24.2 °F 21.9 °F 66% 29.80 in - SW 9.2 mph - N/A   Unknown
11:56 PM 36.0 °F 33.3 °F 21.0 °F 55% 29.76 in - West 3.5 mph - N/A   Unknown